DateTime,DeltaTime,Roll,TargetAngle,Position,Power
2022-05-23 15:19:40.544,0,1.11,2.59,4,7.15
2022-05-23 15:19:40.659,0.114996358752251,0.46,-2.65,3,34.1
2022-05-23 15:19:40.774,0.230002775788307,-0.92,-10.65,1,61.52
2022-05-23 15:19:40.889,0.344999134540558,-1.23,-7.02,-4,22.24
2022-05-23 15:19:41.003,0.45899972319603,-0.27,1.85,-7,-39.05
2022-05-23 15:19:41.118,0.57399608194828,0.9,6.85,-5,-61.41
2022-05-23 15:19:41.232,0.687996670603752,1.28,4.71,2,-30.4
2022-05-23 15:19:41.347,0.803003087639809,1.49,4.72,6,-1.8
2022-05-23 15:19:41.461,0.91700367629528,2.08,8.46,8,-9.86
2022-05-23 15:19:41.576,1.03200003504753,1.22,-0.86,7,46.17
2022-05-23 15:19:41.691,1.14699639379978,-0.64,-11.76,4,82.22
2022-05-23 15:19:41.806,1.26200281083584,-0.68,-3.99,-4,15.41
2022-05-23 15:19:41.920,1.37600339949131,0.3,3.98,-8,-49.66
2022-05-23 15:19:42.035,1.49099975824356,1.23,6.91,-5,-64.11
2022-05-23 15:19:42.150,1.60599611699581,1.44,4.6,2,-28.46
2022-05-23 15:19:42.265,1.72100253403187,1.98,7.87,8,-17.69
2022-05-23 15:19:42.380,1.83599889278412,3.01,13.66,10,-22.05
2022-05-23 15:19:42.494,1.94999948143959,2.46,4.76,11,31.7
2022-05-23 15:19:42.608,2.06400007009506,0.76,-6.17,11,77.54
2022-05-23 15:19:42.723,2.17899642884731,0.31,-2.29,3,43.98
2022-05-23 15:19:42.837,2.29299701750278,0.79,3.51,-3,-18.76
2022-05-23 15:19:42.953,2.40899920463562,0.79,1.35,-4,-19.94
2022-05-23 15:19:43.067,2.52299979329109,0.73,0.89,-2,-18
2022-05-23 15:19:43.182,2.63799615204334,0.91,2.58,0,-16.18
2022-05-23 15:19:43.297,2.7530025690794,1.56,6.85,0,-28.38
2022-05-23 15:19:43.411,2.86700315773487,1.62,4.53,4,-14.41
2022-05-23 15:19:43.526,2.98199951648712,0.85,-1.79,4,33.76
2022-05-23 15:19:43.641,3.09700593352318,-0.07,-5.69,3,40.26
2022-05-23 15:19:43.756,3.21200229227543,-0.49,-4.96,-2,27.41
2022-05-23 15:19:43.869,3.32499705255032,-0.48,-3.05,-5,-4.17
2022-05-23 15:19:43.980,3.43600027263165,-0.48,-3.08,-5,-9.88
2022-05-23 15:19:44.095,3.5509966313839,-0.07,0.16,-5,-22.36
2022-05-23 15:19:44.210,3.66600304841995,0.78,5.02,-4,-42.92
2022-05-23 15:19:44.324,3.78000363707542,0.92,2.45,0,-19.58
2022-05-23 15:19:44.440,3.89600582420826,0.61,-0.61,3,10.43
2022-05-23 15:19:44.553,4.00900058448315,0.21,-2.46,3,25.49
2022-05-23 15:19:44.669,4.12500277161598,-0.64,-7.3,1,43.85
2022-05-23 15:19:44.783,4.23900336027145,-1.04,-6.83,-3,26.11
2022-05-23 15:19:44.898,4.3539997190237,-0.69,-2.24,-5,-12.9
2022-05-23 15:19:45.013,4.46899607777596,-0.03,1.34,-6,-29.64
2022-05-23 15:19:45.128,4.58400249481201,0.39,1.8,-4,-30.21
2022-05-23 15:19:45.242,4.69800308346748,0.51,0.91,0,-14.52
2022-05-23 15:19:45.356,4.81200367212296,0.71,1.96,2,-4.03
2022-05-23 15:19:45.472,4.92800585925579,0.68,0.87,0,7.41
2022-05-23 15:19:45.587,5.04300221800804,-0.28,-6.58,1,30.69
2022-05-23 15:19:45.701,5.15700280666351,-1.59,-12.69,0,59.71
2022-05-23 15:19:45.815,5.27100339531898,-1.29,-4.63,-5,5.23
2022-05-23 15:19:45.930,5.38599975407124,0.26,6.27,-6,-61.99
2022-05-23 15:19:46.045,5.50099611282349,0.9,4.56,-3,-38.08
2022-05-23 15:19:46.160,5.61600252985954,0.42,-2.03,3,8.01
2022-05-23 15:19:46.274,5.73000311851501,0.3,-0.9,3,19.73
2022-05-23 15:19:46.389,5.84499947726727,0.24,-0.77,3,13.06
2022-05-23 15:19:46.504,5.96000589430332,-0.67,-7.74,3,48.44
2022-05-23 15:19:46.618,6.07399642467499,-1.35,-9.05,0,46.2
2022-05-23 15:19:46.733,6.18900284171104,-0.54,0.25,-4,-17.02
2022-05-23 15:19:46.847,6.30300343036652,0.51,4.95,-5,-44.46
2022-05-23 15:19:46.962,6.41799978911877,0.81,2.73,0,-27.77
2022-05-23 15:19:47.077,6.53299614787102,0.67,0.35,2,6.82
2022-05-23 15:19:47.191,6.64699673652649,0.82,2.11,3,-1.68
2022-05-23 15:19:47.307,6.76299892365932,0.69,0.45,3,11.3
2022-05-23 15:19:47.422,6.87800534069538,-0.33,-6.98,3,45.21
2022-05-23 15:19:47.536,6.99200592935085,-1.41,-11.07,0,57.3
2022-05-23 15:19:47.650,7.10599645972252,-0.76,-1.23,-5,-12.26
2022-05-23 15:19:47.765,7.22100287675858,0.43,5.32,-7,-53.12
2022-05-23 15:19:47.879,7.33500346541405,0.65,1.81,-2,-30.57
2022-05-23 15:19:47.991,7.44700245559216,0.46,-0.65,2,3.96
2022-05-23 15:19:48.105,7.56100304424763,0.54,0.85,3,6.58
2022-05-23 15:19:48.220,7.67599940299988,0.57,0.69,3,9.21
2022-05-23 15:19:48.334,7.78999999165535,-0.14,-5,2,36.36
2022-05-23 15:19:48.449,7.9049963504076,-1.1,-9.41,0,46.72
2022-05-23 15:19:48.564,8.02000276744366,-0.89,-3.63,-5,3.21
2022-05-23 15:19:48.678,8.13400335609913,-0.09,1.76,-5,-38.23
2022-05-23 15:19:48.793,8.24899971485138,0.37,1.9,-3,-25.97
2022-05-23 15:19:48.908,8.36399607360363,0.72,2.68,1,-20.27
2022-05-23 15:19:49.022,8.4779966622591,0.96,2.97,3,-3.83
2022-05-23 15:19:49.137,8.59300307929516,1.01,2.39,4,4
2022-05-23 15:19:49.252,8.70799943804741,0.3,-3.43,3,34.8
2022-05-23 15:19:49.366,8.82200002670288,-0.91,-9.88,0,53.82
2022-05-23 15:19:49.481,8.93699638545513,-0.93,-4.73,-4,6.77
2022-05-23 15:19:49.595,9.0509969741106,-0.35,-0.14,-6,-25.08
2022-05-23 15:19:49.711,9.16699916124344,0.21,1.78,-5,-33.77
2022-05-23 15:19:49.825,9.28099974989891,0.7,3.17,-1,-31.28
2022-05-23 15:19:49.940,9.39599610865116,0.8,1.88,2,-5.07
2022-05-23 15:19:50.055,9.51100252568722,0.78,1.24,3,5.91
2022-05-23 15:19:50.169,9.62500311434269,0.31,-2.34,3,24.13
2022-05-23 15:19:50.283,9.73900370299816,-0.66,-7.96,1,46.75
2022-05-23 15:19:50.398,9.85400006175041,-1.08,-7.01,-3,25.73
2022-05-23 15:19:50.513,9.96899642050266,-0.72,-2.35,-6,-13
2022-05-23 15:19:50.628,10.0840028375387,-0.15,0.53,-5,-31.16
2022-05-23 15:19:50.743,10.198999196291,0.28,1.47,-4,-23.72
2022-05-23 15:19:50.857,10.3129997849464,0.88,4.28,0,-33.46
2022-05-23 15:19:50.972,10.4279961436987,0.95,2.27,3,-1.81
2022-05-23 15:19:51.086,10.5419967323542,0.62,-0.72,4,20.12
2022-05-23 15:19:51.201,10.6570031493902,-0.33,-6.69,3,47.42
2022-05-23 15:19:51.315,10.7710037380457,-0.95,-7.47,0,38.35
2022-05-23 15:19:51.431,10.8870059251785,-0.74,-3.05,-4,2.52
2022-05-23 15:19:51.545,11.0009964555502,-0.29,-0.47,-6,-20.43
2022-05-23 15:19:51.660,11.1160028725863,0.17,1.2,-6,-30.48
2022-05-23 15:19:51.771,11.2269960343838,0.68,3.2,-2,-36.32
2022-05-23 15:19:51.885,11.3409966230392,0.79,1.84,1,-7.77
2022-05-23 15:19:51.999,11.4549972116947,0.72,0.82,3,5.01
2022-05-23 15:19:52.115,11.5709993988276,0.2,-2.96,3,28.66
2022-05-23 15:19:52.229,11.684999987483,-0.81,-8.63,1,50
2022-05-23 15:19:52.344,11.7999963462353,-0.99,-5.7,-3,18.26
2022-05-23 15:19:52.459,11.9150027632713,-0.51,-1.1,-6,-17.67
2022-05-23 15:19:52.573,12.0290033519268,0.05,1.26,-4,-33.37
2022-05-23 15:19:52.688,12.1439997106791,0.47,2.1,-3,-21.25
2022-05-23 15:19:52.803,12.2589960694313,0.95,4,0,-27.8
2022-05-23 15:19:52.916,12.37200088799,1.23,4.13,3,-12.91
2022-05-23 15:19:53.032,12.4880030751228,1.06,1.58,3,10.72
2022-05-23 15:19:53.147,12.6029994338751,0.18,-4.65,3,34.72
2022-05-23 15:19:53.261,12.7170000225306,-0.77,-8.27,3,45.35
2022-05-23 15:19:53.375,12.831000611186,-0.7,-3.54,-3,17.94
2022-05-23 15:19:53.490,12.9459969699383,0.1,2.43,-5,-35.14
2022-05-23 15:19:53.605,13.0610033869743,0.67,3.43,-3,-34.92
2022-05-23 15:19:53.720,13.1759997457266,0.87,2.51,1,-17.2
2022-05-23 15:19:53.835,13.2909961044788,0.96,2.4,4,-0.95
2022-05-23 15:19:53.949,13.4049966931343,1.45,5.82,4,-8.56
2022-05-23 15:19:54.064,13.5200031101704,1.25,2.1,5,10.43
2022-05-23 15:19:54.179,13.6349994689226,0.13,-5.85,4,50.47
2022-05-23 15:19:54.294,13.7500058859587,-0.65,-7.05,1,41.06
2022-05-23 15:19:54.408,13.8639964163303,-0.16,0.17,-5,-9.33
2022-05-23 15:19:54.523,13.9790028333664,0.71,4.86,-5,-49.3
2022-05-23 15:19:54.638,14.0939991921186,0.94,2.93,-2,-26.75
2022-05-23 15:19:54.752,14.2079997807741,0.83,1.03,2,-5.48
2022-05-23 15:19:54.866,14.3220003694296,0.91,2.15,4,2.2
2022-05-23 15:19:54.982,14.4380025565624,0.9,1.68,4,10.81
2022-05-23 15:19:55.096,14.5520031452179,0.11,-4.46,3,38.48
2022-05-23 15:19:55.211,14.6669995039701,-0.8,-8.18,0,44.8
2022-05-23 15:19:55.325,14.7810000926256,-0.79,-4.14,-3,7.05
2022-05-23 15:19:55.440,14.8959964513779,-0.08,1.43,-5,-26.19
2022-05-23 15:19:55.555,15.0110028684139,0.69,4.35,-4,-40.02
2022-05-23 15:19:55.666,15.1219960302114,0.93,2.92,1,-22.22
2022-05-23 15:19:55.780,15.2359966188669,1.09,3.15,3,-2.2
2022-05-23 15:19:55.894,15.3499972075224,1.33,4.3,4,-4.38
2022-05-23 15:19:56.009,15.4650036245584,0.9,-0.17,4,21.7
2022-05-23 15:19:56.124,15.5799999833107,-0.26,-7.32,3,50.69
2022-05-23 15:19:56.240,15.6960021704435,-0.75,-6.18,-1,31.07
2022-05-23 15:19:56.353,15.8089969307184,-0.15,0.69,-4,-19.64
2022-05-23 15:19:56.469,15.9249991178513,0.56,3.68,-4,-35.49
2022-05-23 15:19:56.583,16.0389997065067,0.84,2.75,-1,-23.74
2022-05-23 15:19:56.698,16.153996065259,1.12,3.75,2,-15.56
2022-05-23 15:19:56.812,16.2679966539145,1.31,4.04,3,-5.05
2022-05-23 15:19:56.926,16.3819972425699,1.14,1.86,4,7.11
2022-05-23 15:19:57.042,16.4979994297028,0.18,-4.99,3,42.32
2022-05-23 15:19:57.156,16.6120000183582,-0.68,-7.54,0,40.59
2022-05-23 15:19:57.271,16.7269963771105,-0.63,-3.35,-4,3.6
2022-05-23 15:19:57.385,16.840996965766,-0.07,0.75,-4,-27.22
2022-05-23 15:19:57.500,16.956003382802,0.66,4.1,-3,-33.78
2022-05-23 15:19:57.615,17.0709997415543,1.05,4,1,-24.65
2022-05-23 15:19:57.729,17.1850003302097,1.09,2.55,4,0.56
2022-05-23 15:19:57.844,17.299996688962,1.01,1.79,4,12.07
2022-05-23 15:19:57.959,17.415003105998,0.38,-2.79,3,30.25
2022-05-23 15:19:58.074,17.5299994647503,-0.61,-7.86,2,45.21
2022-05-23 15:19:58.189,17.6450058817863,-0.73,-4.5,-1,18.27
2022-05-23 15:19:58.303,17.758996412158,0.02,1.96,-5,-22.74
2022-05-23 15:19:58.418,17.8740028291941,0.85,5.22,-4,-46.91
2022-05-23 15:19:58.533,17.9889991879463,0.93,2.16,0,-17.43
2022-05-23 15:19:58.647,18.1029997766018,1.11,3.27,4,-8.83
2022-05-23 15:19:58.762,18.217996135354,1.54,5.88,5,-6
2022-05-23 15:19:58.876,18.3319967240095,1.34,2.42,4,14.35
2022-05-23 15:19:58.991,18.4470031410456,0.39,-4.17,4,36.68
2022-05-23 15:19:59.106,18.5619994997978,-0.55,-7.44,1,46.46
2022-05-23 15:19:59.221,18.6770059168339,-0.4,-2.12,-3,0.61
2022-05-23 15:19:59.335,18.7909964472055,0.61,5.11,-4,-44.35
2022-05-23 15:19:59.450,18.9060028642416,0.97,3.58,-2,-27.72
2022-05-23 15:19:59.561,19.0169960260391,1.04,2.57,3,-14.08
2022-05-23 15:19:59.675,19.1309966146946,1.19,3.42,6,2.33
2022-05-23 15:19:59.790,19.2460030317307,1.23,3.09,5,13.47
2022-05-23 15:19:59.904,19.3600036203861,0.38,-3.83,4,39.02
2022-05-23 15:20:00.019,19.4749999791384,-0.55,-7.33,1,44.58
2022-05-23 15:20:00.134,19.5899963378906,-0.37,-1.93,-3,0.29
2022-05-23 15:20:00.248,19.7039969265461,0.43,3.62,-4,-36.15
2022-05-23 15:20:00.363,19.8190033435822,0.97,4.31,-2,-32.7
2022-05-23 15:20:00.479,19.935005530715,1.13,3.27,2,-16.08
2022-05-23 15:20:00.592,20.0480002909899,1.41,4.75,5,-7.91
2022-05-23 15:20:00.708,20.1640024781227,1.6,5,6,2.27
2022-05-23 15:20:00.822,20.2780030667782,0.98,-0.63,5,31.85
2022-05-23 15:20:00.936,20.3920036554337,-0.14,-6.81,3,49.67
2022-05-23 15:20:01.051,20.5070000141859,-0.5,-4.72,-3,23.12
2022-05-23 15:20:01.166,20.6219963729382,-0.03,0.52,-4,-26.98
2022-05-23 15:20:01.280,20.7359969615936,0.38,1.71,-4,-23.55
2022-05-23 15:20:01.396,20.8519991487265,0.72,2.61,0,-25.74
2022-05-23 15:20:01.510,20.9659997373819,1.23,5.12,2,-17.68
2022-05-23 15:20:01.625,21.0809960961342,1.56,5.51,4,-12.07
2022-05-23 15:20:01.740,21.1960025131702,1.13,0.71,4,19.5
2022-05-23 15:20:01.854,21.3100031018257,-0.11,-7.23,3,50.64
2022-05-23 15:20:01.969,21.424999460578,-0.61,-5.72,0,28.89
2022-05-23 15:20:02.084,21.540005877614,-0.22,-0.44,-4,-8.44
2022-05-23 15:20:02.198,21.6539964079857,0.48,3.35,-4,-36.5
2022-05-23 15:20:02.313,21.7690028250217,0.84,3.08,-3,-25.61
2022-05-23 15:20:02.428,21.883999183774,1.16,4.1,2,-26.73
2022-05-23 15:20:02.542,21.9979997724295,1.2,2.93,3,3.54
2022-05-23 15:20:02.657,22.1129961311817,0.87,0.24,5,13.79
2022-05-23 15:20:02.772,22.2280025482178,-0.25,-7.2,4,56.45
2022-05-23 15:20:02.886,22.3420031368732,-0.99,-8.05,0,44.3
2022-05-23 15:20:03.001,22.4569994956255,-0.61,-1.88,-4,-5.27
2022-05-23 15:20:03.115,22.571000084281,-0.17,-0.11,-6,-20.64
2022-05-23 15:20:03.230,22.6859964430332,0.12,0.3,-4,-25.48
2022-05-23 15:20:03.345,22.8010028600693,0.32,0.59,-3,-14.37
2022-05-23 15:20:03.455,22.91100025177,0.73,2.95,0,-23.8
2022-05-23 15:20:03.570,23.0259966105223,0.77,1.48,0,-0.21
2022-05-23 15:20:03.685,23.1410030275583,-0.04,-5.07,1,26.55
2022-05-23 15:20:03.800,23.2559993863106,-1.21,-10.75,0,51.81
2022-05-23 15:20:03.914,23.369999974966,-1.18,-5.38,-4,11.51
2022-05-23 15:20:04.029,23.4849963337183,-0.56,-0.67,-8,-23.18
2022-05-23 15:20:04.144,23.6000027507544,0.16,2.33,-7,-47.11
2022-05-23 15:20:04.258,23.7140033394098,0.28,0.1,-2,-21.99
2022-05-23 15:20:04.373,23.8289996981621,0.39,0.43,1,-3.5
2022-05-23 15:20:04.487,23.9430002868176,0.92,4.13,3,-13.35
2022-05-23 15:20:04.602,24.0579966455698,1.04,2.74,2,4.23
2022-05-23 15:20:04.717,24.1730030626059,0.26,-3.88,2,27.94
2022-05-23 15:20:04.831,24.2870036512613,-0.96,-10.07,0,52.05
2022-05-23 15:20:04.946,24.4020000100136,-0.86,-4,-5,4.21
2022-05-23 15:20:05.061,24.5169963687658,0.06,2.83,-6,-44.03
2022-05-23 15:20:05.175,24.6309969574213,0.6,3.04,-4,-35.33
2022-05-23 15:20:05.290,24.7460033744574,0.61,0.79,1,-13.28
2022-05-23 15:20:05.405,24.8609997332096,0.75,1.82,3,0.53
2022-05-23 15:20:05.520,24.9759960919619,0.93,2.62,3,1.28
2022-05-23 15:20:05.634,25.0899966806173,0.38,-2.43,3,25.03
2022-05-23 15:20:05.749,25.2050030976534,-0.7,-8.6,1,49.74
2022-05-23 15:20:05.864,25.3199994564056,-0.57,-2.83,-3,3.97
2022-05-23 15:20:05.978,25.4340000450611,0.2,2.7,-5,-33.17
2022-05-23 15:20:06.092,25.5480006337166,0.91,4.87,-3,-42.09
2022-05-23 15:20:06.207,25.6629969924688,1.24,4.37,3,-24.98
2022-05-23 15:20:06.322,25.7780034095049,1.5,4.95,6,-1.88
2022-05-23 15:20:06.437,25.8929997682571,2.01,7.9,6,-8.87
2022-05-23 15:20:06.552,26.0079961270094,1.81,4.05,7,10.14
2022-05-23 15:20:06.666,26.1219967156649,0.55,-4.97,6,55.4
2022-05-23 15:20:06.781,26.2370031327009,-0.12,-4.78,3,38.21
2022-05-23 15:20:06.896,26.3519994914532,0.49,3,-2,-13.15
2022-05-23 15:20:07.011,26.4670059084892,1.59,8.94,-3,-53.72
2022-05-23 15:20:07.125,26.5809964388609,1.92,6.78,3,-34.58
2022-05-23 15:20:07.240,26.6960028558969,1.69,3.5,7,9.4
2022-05-23 15:20:07.350,26.8060002475977,2.02,7.09,8,-0.73
2022-05-23 15:20:07.465,26.9209966063499,1.84,4.24,8,17.98
2022-05-23 15:20:07.580,27.036003023386,0.64,-4.42,7,56.6
2022-05-23 15:20:07.695,27.1509993821383,-0.37,-7.06,2,54.06
2022-05-23 15:20:07.810,27.2660057991743,-0.04,-0.09,-4,-7.99
2022-05-23 15:20:07.924,27.379996329546,0.46,2.36,-4,-34.34
2022-05-23 15:20:08.039,27.495002746582,0.5,0.52,-2,-14.69
2022-05-23 15:20:08.153,27.6090033352375,0.96,3.97,1,-24.76
2022-05-23 15:20:08.268,27.7239996939898,1.62,7.14,2,-24.26
2022-05-23 15:20:08.382,27.8380002826452,1.71,5.01,5,-8.93
2022-05-23 15:20:08.497,27.9529966413975,0.78,-2.76,5,40.56
2022-05-23 15:20:08.612,28.0680030584335,-0.32,-7.28,2,49.78
2022-05-23 15:20:08.727,28.1829994171858,-0.49,-3.84,-4,13.14
2022-05-23 15:20:08.841,28.2970000058413,-0.31,-1.71,-6,-18.56
2022-05-23 15:20:08.955,28.4110005944967,0.04,0.24,-6,-27.91
2022-05-23 15:20:09.070,28.525996953249,0.64,3.49,-3,-39.55
2022-05-23 15:20:09.185,28.641003370285,0.87,2.61,2,-16.75
2022-05-23 15:20:09.300,28.7559997290373,1.33,5.24,4,-10.49
2022-05-23 15:20:09.415,28.8709960877895,1.54,4.93,6,-2.31
2022-05-23 15:20:09.530,28.9860025048256,0.94,-0.71,5,32.75
2022-05-23 15:20:09.644,29.1000030934811,-0.1,-6.32,3,46.45
2022-05-23 15:20:09.759,29.2149994522333,-0.33,-3.53,-2,17.83
2022-05-23 15:20:09.874,29.3300058692694,0.04,0.37,-4,-19.81
2022-05-23 15:20:09.987,29.4430006295443,0.57,2.93,-4,-31.15
2022-05-23 15:20:10.102,29.5579969882965,0.78,2.24,0,-22.41
2022-05-23 15:20:10.218,29.6739991754293,1.09,3.77,2,-11.5
2022-05-23 15:20:10.331,29.787003993988,1.38,4.7,3,-9.75
2022-05-23 15:20:10.447,29.9029961228371,1.11,1.27,4,10.8
2022-05-23 15:20:10.561,30.0169967114925,0.07,-5.71,3,45.03
2022-05-23 15:20:10.676,30.1320031285286,-0.79,-7.9,0,41.77
2022-05-23 15:20:10.790,30.2460037171841,-0.68,-3.27,-5,3.07
2022-05-23 15:20:10.905,30.3610000759363,-0.15,0.34,-5,-29.68
2022-05-23 15:20:11.021,30.4770022630692,0.11,0.1,-4,-17.7
